FW3961 Weather Reports


time (UTC)temp
F
wind
direction
speed
knots
gust
knots
rain 1hr
in
rain 24hr
in
rain mn
in
humidity
%
barometer
mb
20260505230937 64 290 0.9 2.6 0.00 0.00 0.00 72 1016.9
20260505230440 64 5 0.9 3.5 0.00 0.00 0.00 73 1017.1
20260505230435 64 355 0.9 2.6 0.00 0.00 0.00 73 1017.0
20260505225436 64 296 0.9 3.5 0.00 0.00 0.00 74 1017.0
20260505224935 64 111 0.9 2.6 0.00 0.00 0.00 74 1017.0
20260505224436 64 29 0.9 2.6 0.00 0.00 0.00 74 1017.1
20260505223935 63 42 0.9 2.6 0.00 0.00 0.00 75 1017.1
20260505223436 63 42 0.9 2.6 0.00 0.00 0.00 74 1017.1
20260505222932 63 68 0.9 2.6 0.00 0.00 0.00 74 1017.1
20260505222432 63 298 0.9 2.6 0.00 0.00 0.00 74 1017.1
20260505221936 63 0 0.9 3.5 0.00 0.00 0.00 74 1017.2
20260505221931 63 296 0.9 3.5 0.00 0.00 0.00 74 1017.2
20260505220932 63 261 0.0 1.7 0.00 0.00 0.00 74 1017.3
20260505220431 63 252 0.9 2.6 0.00 0.00 0.00 74 1017.2
20260505215939 63 262 0.9 2.6 0.00 0.00 0.00 73 1017.3
20260505215932 63 179 0.0 2.6 0.00 0.00 0.00 73 1017.3
20260505214932 63 263 0.9 2.6 0.00 0.00 0.00 74 1017.3
20260505214433 63 355 0.9 3.5 0.00 0.00 0.00 74 1017.2
20260505213930 63 355 0.9 3.5 0.00 0.00 0.00 74 1017.3
20260505213429 63 347 0.9 2.6 0.00 0.00 0.00 74 1017.3
20260505212930 63 355 0.9 2.6 0.00 0.00 0.00 74 1017.4
20260505212430 63 328 0.9 2.6 0.00 0.00 0.00 75 1017.4
20260505211930 63 331 0.9 3.5 0.00 0.00 0.00 74 1017.4
20260505211427 62 288 0.9 3.5 0.00 0.00 0.00 75 1017.5
20260505210927 62 313 0.9 2.6 0.00 0.00 0.00 75 1017.5
20260505210429 62 327 0.9 2.6 0.00 0.00 0.00 76 1017.5
20260505205926 62 325 0.9 2.6 0.00 0.00 0.00 75 1017.5
20260505205429 62 275 0.9 2.6 0.00 0.00 0.00 76 1017.5
20260505205423 62 321 0.0 2.6 0.00 0.00 0.00 76 1017.5
20260505204421 62 276 0.9 2.6 0.00 0.00 0.00 75 1017.5
20260505203922 62 262 0.9 3.5 0.00 0.00 0.00 76 1017.6
20260505203428 62 214 0.9 3.5 0.00 0.00 0.00 77 1017.5
20260505203424 62 306 0.9 3.5 0.00 0.00 0.00 76 1017.6
20260505202418 61 324 0.9 3.5 0.00 0.00 0.00 77 1017.6
20260505201912 61 311 0.9 2.6 0.00 0.00 0.00 77 1017.6
20260505201406 61 338 0.9 2.6 0.00 0.00 0.00 77 1017.6
20260505200900 61 338 0.9 2.6 0.00 0.00 0.00 77 1017.7
20260505200356 61 338 0.9 2.6 0.00 0.00 0.00 77 1017.7
20260505200227 61 200 0.9 2.6 0.00 0.00 0.00 77 1017.7
20260505200119 61 305 0.9 2.6 0.00 0.00 0.00 77 1017.6
20260505195337 61 329 0.9 2.6 0.00 0.00 0.00 77 1017.6
20260505194329 61 200 0.9 2.6 0.00 0.00 0.00 77 1017.7
20260505193824 60 315 0.9 2.6 0.00 0.00 0.00 76 1017.7
20260505193319 61 315 0.9 2.6 0.00 0.00 0.00 77 1017.7
20260505192812 61 328 0.9 3.5 0.00 0.00 0.00 77 1017.7
20260505192307 61 234 0.9 3.5 0.00 0.00 0.00 77 1017.7
20260505191800 60 267 0.9 2.6 0.00 0.00 0.00 77 1017.7
20260505191253 60 281 0.9 2.6 0.00 0.00 0.00 77 1017.7
20260505190748 60 296 0.0 1.7 0.00 0.00 0.00 78 1017.7
20260505190242 60 270 0.0 1.7 0.00 0.00 0.00 79 1017.7
20260505185735 60 141 0.0 1.7 0.00 0.00 0.00 78 1017.7
20260505185230 60 157 0.0 0.9 0.00 0.00 0.00 79 1017.7
20260505184723 60 153 0.0 1.7 0.00 0.00 0.00 79 1017.7
20260505184218 59 153 0.9 1.7 0.00 0.00 0.00 80 1017.6
20260505183714 59 153 0.0 1.7 0.00 0.00 0.00 79 1017.6
20260505183707 59 155 0.9 2.6 0.00 0.00 0.00 80 1017.6
20260505182659 59 144 0.9 2.6 0.00 0.00 0.00 80 1017.6
20260505182153 59 209 0.9 2.6 0.00 0.00 0.00 80 1017.6
20260505181649 59 211 0.0 2.6 0.00 0.00 0.00 80 1017.6
20260505181145 58 202 0.0 1.7 0.00 0.00 0.00 80 1017.5
20260505181138 58 204 0.9 2.6 0.00 0.00 0.00 79 1017.5
20260505180132 59 219 0.9 2.6 0.00 0.00 0.00 80 1017.5
20260505180125 59 200 0.0 1.7 0.00 0.00 0.00 80 1017.5
20260505175118 58 161 0.0 0.9 0.00 0.00 0.00 80 1017.5
20260505174612 58 162 0.0 1.7 0.00 0.00 0.00 81 1017.6
20260505174105 58 161 0.0 1.7 0.00 0.00 0.00 81 1017.4
20260505173600 58 157 0.9 2.6 0.00 0.00 0.00 82 1017.3
20260505173053 58 156 0.9 3.5 0.00 0.00 0.00 81 1017.3
20260505172548 58 165 0.0 3.5 0.00 0.00 0.00 81 1017.4
20260505172043 58 213 0.0 1.7 0.00 0.00 0.00 82 1017.3
20260505171535 58 215 0.0 1.7 0.00 0.00 0.00 82 1017.3
20260505171030 58 215 0.0 1.7 0.00 0.00 0.00 83 1017.3
20260505170523 57 216 0.0 1.7 0.00 0.00 0.00 84 1017.3
20260505170020 57 214 0.0 0.9 0.00 0.00 0.00 84 1017.2
20260505170013 57 214 0.0 0.9 0.00 0.00 0.00 84 1017.2
20260505165006 56 214 0.0 2.6 0.00 0.00 0.00 84 1017.4
20260505164501 56 214 0.0 2.6 0.00 0.00 0.00 84 1017.3
20260505163954 56 221 0.0 1.7 0.00 0.00 0.00 84 1017.2
20260505163448 56 221 0.0 1.7 0.00 0.00 0.00 85 1017.2
20260505163321 56 217 0.0 1.7 0.00 0.00 0.00 85 1017.2
20260505163212 56 221 0.0 1.7 0.00 0.00 0.00 85 1017.2
20260505161930 55 207 0.0 1.7 0.00 0.00 0.00 86 1017.1
20260505161428 55 208 0.0 2.6 0.00 0.00 0.00 86 1017.2
20260505160926 55 208 0.0 2.6 0.00 0.00 0.00 86 1017.1
20260505160424 55 207 0.0 1.7 0.00 0.00 0.00 86 1017.2
20260505152924 54 209 0.9 3.5 0.00 0.00 0.00 88 1017.1
20260505152427 54 185 0.0 2.6 0.00 0.00 0.00 89 1017.0
20260505152423 54 188 0.9 3.5 0.00 0.00 0.00 88 1017.1
20260505151418 54 178 0.0 0.0 0.00 0.00 0.00 89 1017.1
20260505150918 54 178 0.0 0.0 0.00 0.00 0.00 90 1017.0
20260505150419 54 177 0.0 0.0 0.00 0.00 0.00 90 1017.1
20260505140412 53 225 0.0 0.0 0.00 0.00 0.00 91 1016.6
20260505124823 53 225 0.0 0.9 0.00 0.00 0.00 90 1016.2
20260505124319 53 225 0.0 0.9 0.00 0.00 0.00 89 1016.3
20260505124313 53 225 0.0 0.9 0.00 0.00 0.00 89 1016.1
20260505123304 53 225 0.0 0.9 0.00 0.00 0.00 90 1016.1
20260505122759 53 225 0.0 0.9 0.00 0.00 0.00 89 1016.2
20260505122253 53 225 0.0 0.0 0.00 0.00 0.00 90 1016.2
20260505121747 53 225 0.0 0.9 0.00 0.00 0.00 90 1016.1
20260505121242 53 225 0.0 0.9 0.00 0.00 0.00 90 1016.1
20260505120734 53 225 0.0 0.9 0.00 0.00 0.00 90 1016.0
20260505120231 53 230 0.0 0.9 0.00 0.00 0.00 89 1016.1
20260505120225 53 230 0.0 0.9 0.00 0.00 0.00 89 1016.0
20260505115217 53 230 0.0 0.9 0.00 0.00 0.00 89 1016.0
20260505114712 53 230 0.0 0.9 0.00 0.00 0.00 89 1016.0
20260505114209 53 230 0.0 0.9 0.00 0.00 0.00 90 1016.1
20260505114203 53 230 0.0 0.9 0.00 0.00 0.00 90 1016.1
20260505113154 53 230 0.0 0.9 0.00 0.00 0.00 90 1016.0
20260505113149 53 228 0.0 0.9 0.00 0.00 0.00 89 1016.1
20260505112141 53 228 0.0 0.9 0.00 0.00 0.00 89 1016.0
20260505111634 53 228 0.0 0.9 0.00 0.00 0.00 89 1016.0
20260505111129 53 228 0.0 1.7 0.00 0.00 0.00 90 1016.0
20260505110625 53 228 0.0 1.7 0.00 0.00 0.00 90 1016.0
20260505110619 53 217 0.0 0.9 0.00 0.00 0.00 89 1015.9
20260505102029 53 186 0.0 1.7 0.00 0.00 0.00 90 1015.8
20260505101523 53 186 0.0 0.9 0.00 0.00 0.00 91 1015.7
20260505101017 53 163 0.0 0.9 0.00 0.00 0.00 91 1015.7
20260505100511 53 163 0.0 0.9 0.00 0.00 0.00 91 1015.7
20260505100006 53 163 0.0 0.0 0.00 0.00 0.00 91 1015.7
20260505095500 53 163 0.0 0.0 0.00 0.00 0.00 91 1015.8
20260505094954 53 162 0.0 1.7 0.00 0.00 0.00 91 1015.7
20260505094447 53 162 0.9 1.7 0.00 0.00 0.00 91 1015.7
20260505093941 53 162 0.0 1.7 0.00 0.00 0.00 91 1015.7
20260505093437 53 162 0.0 1.7 0.00 0.00 0.00 91 1015.7
20260505092938 53 162 0.0 3.5 0.00 0.00 0.00 90 1015.6
20260505092436 53 162 0.9 3.5 0.00 0.00 0.00 91 1015.6
20260505091935 53 163 0.9 2.6 0.00 0.00 0.00 91 1015.6
20260505091437 53 163 0.9 2.6 0.00 0.00 0.00 91 1015.6
20260505090936 53 172 0.9 1.7 0.00 0.00 0.00 91 1015.5
20260505090437 52 172 0.9 1.7 0.00 0.00 0.00 91 1015.5
20260505085936 52 172 0.9 1.7 0.00 0.00 0.00 91 1015.5
20260505085435 52 172 0.9 1.7 0.00 0.00 0.00 91 1015.5
20260505084936 52 234 0.0 0.9 0.00 0.00 0.00 91 1015.6
20260505084436 52 234 0.0 0.9 0.00 0.00 0.00 91 1015.6
20260505083941 52 234 0.0 0.9 0.00 0.00 0.00 91 1015.6
20260505083936 52 234 0.0 0.9 0.00 0.00 0.00 91 1015.6
20260505082936 52 234 0.0 0.9 0.00 0.00 0.00 91 1015.5
20260505082436 52 234 0.0 0.9 0.00 0.00 0.00 91 1015.4
20260505081934 52 234 0.0 0.9 0.00 0.00 0.00 91 1015.3
20260505081431 52 234 0.0 0.9 0.00 0.00 0.00 91 1015.3
20260505080932 52 234 0.0 1.7 0.00 0.00 0.00 91 1015.4
20260505080430 52 234 0.0 1.7 0.00 0.00 0.00 91 1015.2
20260505075933 52 243 0.0 1.7 0.00 0.00 0.00 91 1015.3
20260505075432 52 248 0.0 0.9 0.00 0.00 0.00 91 1015.3
20260505074933 52 248 0.0 2.6 0.00 0.00 0.00 91 1015.2
20260505074433 52 248 0.0 2.6 0.00 0.00 0.00 91 1015.2
20260505073930 52 144 0.0 0.9 0.00 0.00 0.00 91 1015.1
20260505073429 52 144 0.0 0.9 0.00 0.00 0.00 91 1015.2
20260505072931 52 144 0.0 1.7 0.00 0.00 0.00 91 1015.2
20260505072430 51 143 0.9 2.6 0.00 0.00 0.00 91 1015.1
20260505071929 51 155 0.9 2.6 0.00 0.00 0.00 91 1015.1
20260505071431 51 158 0.9 3.5 0.00 0.00 0.00 91 1015.0
20260505070929 51 158 0.9 3.5 0.00 0.00 0.00 90 1014.9
20260505070429 51 165 0.9 3.5 0.00 0.00 0.00 90 1014.9
20260505065926 51 173 0.9 1.7 0.00 0.00 0.00 90 1014.9
20260505065426 52 173 0.9 1.7 0.00 0.00 0.00 90 1014.8
20260505064933 52 173 0.0 1.7 0.00 0.00 0.00 89 1014.8
20260505064929 52 173 0.0 1.7 0.00 0.00 0.00 89 1014.8
20260505064807 52 173 0.9 1.7 0.00 0.00 0.00 89 1014.8
20260505063420 52 173 0.0 1.7 0.00 0.00 0.00 88 1014.7
20260505062917 53 173 0.9 2.6 0.00 0.00 0.00 88 1014.7
20260505062912 53 173 0.9 2.6 0.00 0.00 0.00 87 1014.7
20260505061903 53 180 0.0 1.7 0.00 0.00 0.00 86 1014.6
20260505061356 53 212 0.0 0.9 0.00 0.00 0.00 86 1014.7
20260505060854 53 212 0.0 0.0 0.00 0.00 0.00 85 1014.7
20260505060345 53 212 0.0 0.9 0.00 0.00 0.00 85 1014.7
20260505055840 54 212 0.0 0.9 0.00 0.00 0.00 85 1014.7
20260505055333 54 212 0.0 0.9 0.00 0.00 0.00 85 1014.7
20260505054827 54 212 0.0 0.0 0.00 0.00 0.00 84 1014.7
20260505054320 54 212 0.0 0.0 0.00 0.00 0.00 84 1014.8
20260505053813 54 212 0.0 0.0 0.00 0.00 0.00 84 1014.8
20260505053308 54 212 0.0 0.0 0.00 0.00 0.00 84 1014.8
20260505052801 54 212 0.0 0.9 0.00 0.00 0.00 84 1014.7
20260505052255 55 212 0.0 1.7 0.00 0.00 0.00 84 1014.7
20260505051749 55 212 0.0 1.7 0.00 0.00 0.00 83 1014.7
20260505051243 55 196 0.0 1.7 0.00 0.00 0.00 83 1014.7
20260505050736 55 188 0.0 0.9 0.00 0.00 0.00 83 1014.8
20260505050231 55 207 0.0 1.7 0.00 0.00 0.00 82 1014.6
20260505041638 57 201 0.9 2.6 0.00 0.00 0.00 81 1013.8
20260505041131 58 206 0.9 2.6 0.00 0.00 0.00 81 1013.6
20260505040626 58 207 0.0 2.6 0.00 0.00 0.00 80 1013.5
20260505040120 59 211 0.0 2.6 0.00 0.00 0.00 80 1013.5
20260505035615 59 221 0.0 1.7 0.00 0.00 0.00 79 1013.5
20260505035109 60 227 0.0 1.7 0.00 0.00 0.00 78 1013.5
20260505035104 60 203 0.9 1.7 0.00 0.00 0.00 78 1013.3
20260505034056 60 204 0.0 1.7 0.00 0.00 0.00 77 1013.2
20260505034051 61 205 0.0 2.6 0.00 0.00 0.00 77 1013.1
20260505033043 61 202 0.9 4.3 0.00 0.00 0.00 77 1013.1
20260505032536 62 256 0.9 4.3 0.00 0.00 0.00 76 1013.1
20260505032031 62 224 0.9 2.6 0.00 0.00 0.00 76 1013.0
20260505031528 63 233 0.9 2.6 0.00 0.00 0.00 75 1013.0
20260505031019 63 209 0.9 2.6 0.00 0.00 0.00 74 1012.8
20260505030514 64 228 0.9 2.6 0.00 0.00 0.00 74 1012.6
20260505030007 64 204 0.9 2.6 0.00 0.00 0.00 73 1012.5
20260505030002 64 202 0.9 3.5 0.00 0.00 0.00 73 1012.3
20260505024955 65 241 0.9 3.5 0.00 0.00 0.00 72 1012.3
20260505024449 65 208 0.9 3.5 0.00 0.00 0.00 72 1012.3
20260505023943 66 231 0.9 3.5 0.00 0.00 0.00 72 1012.3
20260505023437 66 242 0.9 5.2 0.00 0.00 0.00 71 1012.2
20260505022931 66 202 1.7 5.2 0.00 0.00 0.00 70 1012.2
20260505022427 67 275 1.7 4.3 0.00 0.00 0.00 69 1012.1
20260505022421 67 214 0.9 3.5 0.00 0.00 0.00 70 1012.2
20260505021413 68 215 0.9 3.5 0.00 0.00 0.00 69 1012.1
20260505020912 68 211 1.7 4.3 0.00 0.00 0.00 69 1012.2
20260505020412 69 219 0.9 4.3 0.00 0.00 0.00 68 1012.1
20260505015912 69 197 0.9 5.2 0.00 0.00 0.00 68 1012.1
20260505015413 69 215 1.7 5.2 0.00 0.00 0.00 67 1012.1
20260505014912 70 156 1.7 4.3 0.00 0.00 0.00 67 1012.1
20260505014419 71 209 1.7 6.1 0.00 0.00 0.00 66 1012.2
20260505014415 71 226 1.7 4.3 0.00 0.00 0.00 66 1012.1
20260505013912 71 187 1.7 6.1 0.00 0.00 0.00 66 1012.1
20260505012912 72 229 1.7 3.5 0.00 0.00 0.00 66 1012.2
20260505012414 72 204 1.7 4.3 0.00 0.00 0.00 66 1012.3
20260505011912 72 197 1.7 4.3 0.00 0.00 0.00 66 1012.3
20260505011412 72 219 1.7 4.3 0.00 0.00 0.00 66 1012.4
20260505010911 73 202 0.9 4.3 0.00 0.00 0.00 65 1012.5
20260505010412 73 218 1.7 4.3 0.00 0.00 0.00 65 1012.3
20260505005910 73 196 1.7 4.3 0.00 0.00 0.00 65 1012.3
20260505005410 73 238 0.9 2.6 0.00 0.00 0.00 65 1012.4
20260505004908 73 271 0.9 2.6 0.00 0.00 0.00 66 1012.5
20260505004406 73 187 0.9 2.6 0.00 0.00 0.00 65 1012.5
20260505003906 73 138 0.9 2.6 0.00 0.00 0.00 65 1012.4
20260505003405 73 209 0.9 3.5 0.00 0.00 0.00 65 1012.4
20260505002906 74 221 0.9 3.5 0.00 0.00 0.00 64 1012.4
20260505002405 74 169 0.9 1.7 0.00 0.00 0.00 65 1012.4
20260505001906 73 164 0.9 3.5 0.00 0.00 0.00 68 1012.4
20260505001405 73 164 0.9 3.5 0.00 0.00 0.00 67 1012.4
20260505000915 73 154 0.9 4.3 0.00 0.00 0.00 64 1012.5
20260505000908 73 197 0.9 3.5 0.00 0.00 0.00 67 1012.4
20260504235905 73 161 0.9 4.3 0.00 0.00 0.00 66 1012.6
20260504235401 73 194 0.9 3.5 0.00 0.00 0.00 66 1012.6
20260504234902 73 169 0.9 2.6 0.00 0.00 0.00 65 1012.6
20260504234412 72 154 0.9 4.3 0.00 0.00 0.00 68 1012.8
20260504234401 73 209 0.9 2.6 0.00 0.00 0.00 64 1012.7
20260504233902 73 204 0.9 3.5 0.00 0.00 0.00 65 1012.7
20260504232904 72 150 0.9 4.3 0.00 0.00 0.00 66 1012.8
20260504232405 72 238 0.9 6.1 0.00 0.00 0.00 67 1013.0
20260504231905 72 119 1.7 6.1 0.00 0.00 0.00 66 1013.1
20260504231401 72 149 0.9 5.2 0.00 0.00 0.00 66 1013.0